Simultaneous Nadir Overpasses (SNOs) Predictions

Prediction of SNOs between FY3D and AQUA Satellite Orbit:

Table of predicted SNOs for the next 14.0 days since TLE Epoch: 3/18/2023
Index Date (FY3D) Time (FY3D) Lat,Lon (FY3D) SZA (FY3D ) Date (AQUA) Time (AQUA) Lat,Lon (AQUA) SZA (AQUA ) Distance(km) Time Diff (sec)
1 03/18/2023 14:09:38 -77.96, 131.40 100.59 03/18/2023 14:09:39 -77.97, 131.31 100.58 2.33 1
2 03/21/2023 03:55:24 78.21, 103.67 78.71 03/21/2023 03:56:02 78.21, 103.61 78.70 1.34 38
3 03/21/2023 04:45:56 -77.70, -86.33 101.97 03/21/2023 04:45:15 -77.70, -86.40 101.95 1.80 41
4 03/23/2023 17:41:43 -79.63, 67.18 100.23 03/23/2023 17:42:57 -79.75, 67.60 100.19 16.18 74
5 03/23/2023 18:31:42 77.92,-113.86 77.29 03/23/2023 18:31:37 77.93,-113.97 77.31 2.74 5
6 03/26/2023 08:17:30 -78.31,-142.37 103.23 03/26/2023 08:18:00 -78.30,-142.27 103.26 2.60 30
7 03/26/2023 09:08:03 77.77, 27.87 76.06 03/26/2023 09:07:13 77.76, 27.90 76.06 0.86 50
8 03/28/2023 22:03:12 78.40,-169.27 75.87 03/28/2023 22:04:16 78.41,-169.33 75.86 1.57 64
9 03/28/2023 22:53:45 -77.94, 0.62 104.75 03/28/2023 22:53:30 -77.94, 0.58 104.75 0.96 15
10 03/31/2023 12:39:29 78.16, -26.96 74.53 03/31/2023 12:39:46 78.16, -26.98 74.52 0.60 17



Historial Predications of SNOs between FY3D and AQUA
